Bangor, ME

5:07 AM EDT on September 22, 2019 (GMT -0400)
Bangor International

Weather History for KBGR - August, 2019

Change the Weather History Date:

Wednesday, August 21, 2019

  Actual Average Record
Temperature  
Mean Temperature 69 °F 66 °F  
Max Temperature 79 °F 78 °F 95 °F (1937)
Min Temperature 58 °F 55 °F 38 °F (1940)
Degree Days  
Heating Degree Days 0 1  
Month to date heating degree days 1 21  
Since 1 June heating degree days 91 151  
Since 1 July heating degree days 1 44  
Cooling Degree Days 4 3  
Month to date cooling degree days 79 77  
Year to date cooling degree days 305 267  
Since 1 June cooling degree days 305 261  
Growing Degree Days 17 (Base 50)    
Moisture  
Dew Point 64 °F    
Average Humidity 85    
Maximum Humidity 100    
Minimum Humidity 69    
Precipitation  
Precipitation 0.70 in 0.09 in 1.11 in (1962)
Month to date precipitation 5.55 2.08  
Year to date precipitation 34.22 25.35  
Snow  
Snow 0.00 in 0.00 in 0.00 in (2002)
Month to date snowfall 0.0 0.0  
Since 1 June snowfall 0.0 0.0  
Since 1 July snowfall 0.0 0.0  
Snow Depth 0.00 in    
Sea Level Pressure  
Sea Level Pressure 29.92 in    
Wind  
Wind Speed 6 mph (SSE)    
Max Wind Speed 16 mph    
Max Gust Speed 21 mph    
Visibility 8 miles    
Events Rain    
T = Trace of Precipitation, MM = Missing Value Source: NWS Daily Summary

Daily Weather History Graph

Daily Weather History Graph

Search for Another Location

Airport or City:

Astronomy

Aug. 21, 2019 Rise Set
Actual Time 5:44 AM EDT 7:31 PM EDT
Civil Twilight 5:13 AM EDT 8:03 PM EDT
Nautical Twilight 4:34 AM EDT 8:40 PM EDT
Astronomical Twilight 3:53 AM EDT 9:22 PM EDT
Moon 10:33 PM EDT (8/21) 11:30 AM EDT (8/21)
Length of Visible Light 14h 49m
Length of Day
13h 47m
Waning Gibbous, 69% of the Moon is Illuminated
Aug 21
Waning Gibbous
Aug 23
Last Quarter
Aug 30
New
Sep 5
First Quarter
Sep 14
Full

Hourly Weather History & Observations

Time (EDT) Temp. Dew Point Humidity Pressure Visibility Wind Dir Wind Speed Gust Speed Precip Events Conditions
12:53 AM 64.0 °F 59.0 °F 84% 30.01 in 10.0 mi South 5.8 mph - N/A   Clear
1:53 AM 63.0 °F 57.9 °F 84% 30.01 in 10.0 mi South 4.6 mph - N/A   Clear
2:53 AM 61.0 °F 57.0 °F 87% 30.01 in 10.0 mi Calm Calm - N/A   Clear
3:53 AM 59.0 °F 57.0 °F 93% 30.00 in 10.0 mi South 3.5 mph - N/A   Clear
4:53 AM 59.0 °F 57.0 °F 93% 30.00 in 10.0 mi Calm Calm - N/A   Partly Cloudy
5:53 AM 57.9 °F 57.0 °F 97% 29.99 in 10.0 mi Calm Calm - N/A   Mostly Cloudy
6:53 AM 63.0 °F 60.1 °F 90% 29.99 in 10.0 mi Calm Calm - N/A   Mostly Cloudy
7:53 AM 66.0 °F 63.0 °F 90% 29.99 in 10.0 mi South 8.1 mph - N/A   Mostly Cloudy
8:34 AM 66.0 °F 64.0 °F 93% 29.99 in 10.0 mi South 8.1 mph - N/A   Overcast
8:53 AM 66.0 °F 63.0 °F 90% 29.99 in 10.0 mi South 10.4 mph - N/A   Overcast
9:29 AM 68.0 °F 64.0 °F 87% 29.99 in 10.0 mi South 5.8 mph - N/A   Mostly Cloudy
9:53 AM 69.1 °F 64.0 °F 84% 29.98 in 10.0 mi South 6.9 mph - N/A   Mostly Cloudy
10:53 AM 73.0 °F 64.0 °F 73% 29.97 in 10.0 mi South 9.2 mph - N/A   Mostly Cloudy
11:53 AM 75.9 °F 66.0 °F 71% 29.95 in 10.0 mi South 8.1 mph - N/A   Mostly Cloudy
12:53 PM 77.0 °F 66.0 °F 69% 29.92 in 10.0 mi SSW 13.8 mph 20.7 mph N/A   Mostly Cloudy
1:53 PM 75.9 °F 66.0 °F 71% 29.91 in 10.0 mi South 15.0 mph - N/A   Scattered Clouds
2:53 PM 71.1 °F 66.9 °F 87% 29.92 in 8.0 mi South 12.7 mph - 0.01 in Rain Light Rain
3:53 PM 70.0 °F 68.0 °F 93% 29.92 in 7.0 mi South 9.2 mph - 0.05 in Rain Light Rain
4:53 PM 69.1 °F 68.0 °F 96% 29.92 in 7.0 mi South 9.2 mph - 0.08 in Rain Light Rain
5:03 PM 70.0 °F 68.0 °F 93% 29.92 in 7.0 mi SSE 6.9 mph - 0.00 in Rain Light Rain
5:53 PM 69.1 °F 68.0 °F 96% 29.91 in 5.0 mi SSE 8.1 mph - 0.03 in Rain Light Rain
6:53 PM 69.1 °F 66.9 °F 93% 29.88 in 9.0 mi SE 3.5 mph - 0.03 in Rain Light Rain
7:40 PM 68.0 °F 66.0 °F 93% 29.87 in 2.5 mi ENE 4.6 mph - 0.10 in Rain Heavy Rain
7:53 PM 68.0 °F 66.9 °F 96% 29.86 in 7.0 mi ENE 5.8 mph - 0.11 in Rain Light Rain
8:27 PM 68.0 °F 66.9 °F 96% 29.89 in 4.0 mi NNW 10.4 mph - 0.04 in Rain Heavy Rain
8:44 PM 66.9 °F 66.9 °F 100% 29.90 in 1.8 mi Calm Calm - 0.17 in Rain Heavy Rain
8:53 PM 66.9 °F 66.0 °F 97% 29.87 in 2.5 mi East 10.4 mph - 0.21 in Rain Heavy Rain
9:00 PM 68.0 °F 66.9 °F 96% 29.88 in 4.0 mi ESE 6.9 mph - 0.01 in Rain Rain
9:49 PM 66.2 °F 66.2 °F 100% 29.86 in 7.0 mi SE 4.6 mph - 0.03 in Rain Light Rain
9:53 PM 66.9 °F 66.0 °F 97% 29.85 in 7.0 mi ESE 4.6 mph - 0.03 in Rain Light Rain
10:23 PM 68.0 °F 66.0 °F 93% 29.84 in 10.0 mi ESE 5.8 mph - 0.00 in Rain Light Rain
10:53 PM 68.0 °F 66.9 °F 96% 29.82 in 7.0 mi SE 4.6 mph - 0.02 in Rain Light Rain
11:28 PM 68.0 °F 66.0 °F 93% 29.82 in 5.0 mi SE 3.5 mph - 0.12 in Rain Heavy Rain
11:45 PM 68.0 °F 66.9 °F 96% 29.81 in 6.0 mi SE 5.8 mph - 0.13 in Rain Light Rain
11:53 PM 68.0 °F 66.9 °F 96% 29.79 in 10.0 mi SSE 4.6 mph - 0.13 in   Overcast